Le nostre stazioni meteo in Italia

Pubblicità
Il mio iltempo24.it
Trento, Italia (16023): Temperatura & dewpoint: 07.12.2018 22:00:00 - 13.12.2018 22:00:00 (CET)Trento, Italia (16023): velocità del vento: 07.12.2018 22:00:00 - 13.12.2018 22:00:00 (CET)Trento, Italia (16023): direzione del vento: 07.12.2018 22:00:00 - 13.12.2018 22:00:00 (CET)Trento, Italia (16023): reduced air pressure: 07.12.2018 22:00:00 - 13.12.2018 22:00:00 (CET)Trento, Italia (16023): precipitazioni: 07.12.2018 22:00:00 - 13.12.2018 22:00:00 (CET)
Data & Tempo tt [°C] td [°C] ff [km/h] ff [kn] dd ppp [hPa] rr [mm]
13.12.2018 22:00:00 - - - - - - -
13.12.2018 21:00:00 -0,8 -7,7 2 1 S 1017,9 -
13.12.2018 20:00:00 -0,3 -8,1 0 0 N 1017,5 -
13.12.2018 19:00:00 0,7 -8,1 0 0 N 1017,3 0,0
13.12.2018 18:00:00 1,9 -8,9 0 0 N 1017,0 -
13.12.2018 17:00:00 2,8 -8,7 5 3 NNE 1016,9 -
13.12.2018 16:00:00 3,5 -9,3 9 5 N 1016,6 -
13.12.2018 15:00:00 3,6 -9,2 13 7 N 1016,6 -
13.12.2018 14:00:00 3,5 -9,3 11 6 N 1017,0 -
13.12.2018 13:00:00 3,4 -8,7 11 6 N 1017,6 0,0
13.12.2018 12:00:00 2,1 -8,2 16 9 NNO 1018,4 -
13.12.2018 11:00:00 0,5 -7,6 13 7 E 1019,7 -
13.12.2018 10:00:00 -2,8 -8,2 0 0 N 1020,6 -
13.12.2018 09:00:00 -3,0 -7,8 0 0 N 1020,8 -
13.12.2018 08:00:00 -3,6 -7,8 0 0 N 1020,3 -
13.12.2018 07:00:00 -4,3 -8,3 0 0 N 1020,2 0,0
13.12.2018 06:00:00 -4,0 -7,8 0 0 N 1020,4 -
13.12.2018 05:00:00 -4,4 -8,4 0 0 N 1020,7 -
13.12.2018 04:00:00 -4,0 -8,2 0 0 N 1020,8 -
13.12.2018 03:00:00 -3,7 -8,1 0 0 N 1021,3 -
13.12.2018 02:00:00 -3,4 -8,0 0 0 N 1021,2 -
13.12.2018 01:00:00 -3,1 -8,6 4 2 E 1021,4 0,0
13.12.2018 00:00:00 -2,2 -7,8 0 0 N 1021,5 -
12.12.2018 23:00:00 -2,4 -8,0 5 3 N 1021,7 -
12.12.2018 22:00:00 -1,8 -8,2 0 0 N 1021,6 -
12.12.2018 21:00:00 -1,2 -8,5 0 0 N 1021,1 -
12.12.2018 20:00:00 -1,0 -8,1 4 2 NE 1021,2 -
12.12.2018 19:00:00 -0,5 -9,0 0 0 N 1021,0 0,0
12.12.2018 18:00:00 0,8 -9,4 0 0 N 1020,4 -
12.12.2018 17:00:00 2,6 -10,1 0 0 N 1019,9 -
12.12.2018 16:00:00 4,8 -11,9 0 0 N 1019,9 -
12.12.2018 15:00:00 6,6 -12,7 15 8 N 1019,8 -
12.12.2018 14:00:00 6,5 -12,3 11 6 NNO 1020,4 -
12.12.2018 13:00:00 5,8 -11,0 13 7 N 1021,3 0,0
12.12.2018 12:00:00 4,8 -10,3 18 10 NE 1022,2 -
12.12.2018 11:00:00 3,6 -9,9 9 5 N 1023,1 -
12.12.2018 10:00:00 2,2 -10,1 8 4 NNE 1023,4 -
12.12.2018 09:00:00 1,9 -10,4 13 7 E 1023,4 -
12.12.2018 08:00:00 1,7 -10,6 8 4 NNE 1023,0 -
12.12.2018 07:00:00 1,9 -10,4 9 5 ENE 1022,4 0,0
12.12.2018 06:00:00 2,2 -10,5 15 8 E 1022,2 -
12.12.2018 05:00:00 2,1 -10,6 13 7 E 1022,4 -
12.12.2018 04:00:00 2,4 -11,0 9 5 E 1022,7 -
12.12.2018 03:00:00 2,9 -10,2 15 8 ENE 1022,7 -
12.12.2018 02:00:00 3,0 -10,4 9 5 E 1022,5 -
12.12.2018 01:00:00 3,0 -9,7 15 8 ENE 1022,2 0,0
12.12.2018 00:00:00 2,8 -9,9 5 3 ONO 1022,4 -
11.12.2018 23:00:00 3,8 -9,7 11 6 NNE 1022,1 -
11.12.2018 22:00:00 5,2 -10,3 15 8 NNE 1022,1 -
11.12.2018 21:00:00 5,7 -10,3 13 7 E 1021,8 -
11.12.2018 20:00:00 5,4 -10,5 18 10 ENE 1021,5 -
11.12.2018 19:00:00 4,1 -10,5 5 3 NE 1021,5 0,0
11.12.2018 18:00:00 4,4 -10,2 5 3 NE 1020,5 -
11.12.2018 17:00:00 4,9 -8,0 4 2 NE 1020,1 -
11.12.2018 16:00:00 7,0 -10,0 5 3 ONO 1019,5 -
11.12.2018 15:00:00 9,3 -8,0 4 2 NO 1019,3 -
11.12.2018 14:00:00 9,1 -6,9 5 3 NNO 1019,3 -
11.12.2018 13:00:00 8,5 -5,5 4 2 NNO 1019,8 0,0
11.12.2018 12:00:00 7,0 -2,6 2 1 ENE 1020,6 -
11.12.2018 11:00:00 3,1 -0,6 4 2 SE 1021,4 -
11.12.2018 10:00:00 1,4 -3,4 4 2 SSE 1021,8 -
11.12.2018 09:00:00 2,6 -3,8 4 2 E 1021,0 -
11.12.2018 08:00:00 3,8 -3,1 13 7 E 1020,4 -
11.12.2018 07:00:00 3,9 -3,5 13 7 NE 1020,1 0,0
11.12.2018 06:00:00 4,2 -3,2 16 9 E 1020,4 -
11.12.2018 05:00:00 4,8 -2,4 4 2 OSO 1019,9 -
11.12.2018 04:00:00 0,9 -2,9 5 3 NO 1020,4 -
11.12.2018 03:00:00 0,7 -3,6 4 2 NNO 1020,2 -
11.12.2018 02:00:00 1,1 -4,0 2 1 NE 1019,7 -
11.12.2018 01:00:00 2,0 -3,8 5 3 NNE 1019,3 0,0
11.12.2018 00:00:00 1,5 -5,3 4 2 S 1019,9 -
10.12.2018 23:00:00 2,1 -5,6 0 0 N 1019,4 -
10.12.2018 22:00:00 3,0 -5,0 4 2 ONO 1019,2 -
10.12.2018 21:00:00 3,1 -4,9 8 4 NO 1019,1 -
10.12.2018 20:00:00 4,3 -5,1 5 3 NO 1018,7 -
10.12.2018 19:00:00 3,8 -6,1 2 1 NNE 1018,7 0,0
10.12.2018 18:00:00 5,2 -6,5 4 2 E 1018,2 -
10.12.2018 17:00:00 8,2 -7,3 2 1 O 1017,4 -
10.12.2018 16:00:00 9,3 -4,8 5 3 E 1016,7 -
10.12.2018 15:00:00 11,9 -4,0 2 1 OSO 1016,0 -
10.12.2018 14:00:00 11,9 -1,1 0 0 N 1016,2 -
10.12.2018 13:00:00 10,4 0,9 4 2 O 1016,4 0,0
10.12.2018 12:00:00 7,8 3,2 5 3 O 1016,6 -
10.12.2018 11:00:00 2,8 1,9 0 0 N 1017,2 -
10.12.2018 10:00:00 0,5 -0,8 0 0 N 1017,5 -
10.12.2018 09:00:00 0,4 -1,1 0 0 N 1016,7 -
10.12.2018 08:00:00 0,5 -1,3 2 1 ONO 1015,9 -
10.12.2018 07:00:00 0,5 -1,6 2 1 SO 1015,6 0,0
10.12.2018 06:00:00 1,8 -0,7 4 2 ONO 1014,4 -
10.12.2018 05:00:00 2,7 -0,1 5 3 S 1014,0 -
10.12.2018 04:00:00 3,7 -0,6 8 4 OSO 1014,0 -
10.12.2018 03:00:00 5,4 0,5 11 6 N 1013,5 -
10.12.2018 02:00:00 3,2 1,5 8 4 O 1013,0 -
10.12.2018 01:00:00 2,1 0,0 5 3 N 1013,4 0,0
10.12.2018 00:00:00 1,8 -0,8 0 0 N 1013,0 -
09.12.2018 23:00:00 1,8 -1,2 4 2 ESE 1012,8 -
09.12.2018 22:00:00 2,6 -0,5 0 0 N 1012,1 -
09.12.2018 21:00:00 2,4 -1,3 4 2 NE 1011,0 -
09.12.2018 20:00:00 3,2 -0,5 0 0 N 1010,9 -
09.12.2018 19:00:00 2,7 -1,3 2 1 E 1009,7 0,0
09.12.2018 18:00:00 2,9 -2,1 0 0 N 1009,7 -
09.12.2018 17:00:00 4,6 -1,9 0 0 N 1009,2 -
09.12.2018 16:00:00 6,6 -1,4 9 5 N 1008,3 -
09.12.2018 15:00:00 8,0 -1,6 8 4 N 1008,4 -
09.12.2018 14:00:00 8,5 -1,4 4 2 NNO 1008,5 -
09.12.2018 13:00:00 7,9 -0,9 18 10 NNE 1008,5 0,0
09.12.2018 12:00:00 5,5 -2,9 18 10 N 1010,2 -
09.12.2018 11:00:00 5,4 -1,4 11 6 N 1009,4 -
09.12.2018 10:00:00 2,0 -2,0 8 4 NNO 1009,6 -
09.12.2018 09:00:00 1,5 -1,6 11 6 NNE 1010,6 -
09.12.2018 08:00:00 -1,1 -3,8 0 0 N 1010,4 -
09.12.2018 07:00:00 -1,1 -3,8 4 2 NE 1010,7 0,0
09.12.2018 06:00:00 -1,3 -4,2 0 0 N 1011,3 -
09.12.2018 05:00:00 -1,4 -3,5 5 3 NNO 1012,5 -
09.12.2018 04:00:00 -1,4 -3,8 0 0 N 1013,8 -
09.12.2018 03:00:00 -1,3 -3,9 4 2 ESE 1014,8 -
09.12.2018 02:00:00 -0,6 -3,5 0 0 N 1015,5 -
09.12.2018 01:00:00 -0,4 -3,3 0 0 N 1015,6 0,0
09.12.2018 00:00:00 0,0 -3,4 5 3 ENE 1016,3 -
08.12.2018 23:00:00 0,5 -3,1 4 2 ESE 1016,6 -
08.12.2018 22:00:00 1,6 -2,4 2 1 NE 1016,4 -
08.12.2018 21:00:00 2,7 -1,9 2 1 N 1016,5 -
08.12.2018 20:00:00 2,9 -3,1 2 1 S 1016,2 -
08.12.2018 19:00:00 4,6 -3,1 2 1 O 1015,6 0,0
08.12.2018 18:00:00 6,1 -4,2 5 3 NNO 1015,1 -
08.12.2018 17:00:00 9,2 -4,9 13 7 S 1014,4 -
08.12.2018 16:00:00 10,5 -4,4 9 5 S 1013,9 -
08.12.2018 15:00:00 14,0 -6,9 5 3 NNO 1012,8 -
08.12.2018 14:00:00 14,2 -7,3 11 6 NNE 1012,6 -
08.12.2018 13:00:00 13,9 -4,4 11 6 NNE 1012,8 0,0
08.12.2018 12:00:00 12,6 -2,6 15 8 NE 1012,9 -
08.12.2018 11:00:00 10,8 -0,2 8 4 E 1013,4 -
08.12.2018 10:00:00 6,7 -0,8 5 3 O 1013,1 -
08.12.2018 09:00:00 8,7 -0,2 9 5 ENE 1012,2 -
08.12.2018 08:00:00 8,3 1,8 24 13 ENE 1011,2 -
08.12.2018 07:00:00 7,8 3,4 13 7 NE 1010,4 -
08.12.2018 06:00:00 6,4 3,2 4 2 NO 1010,8 -
08.12.2018 05:00:00 6,8 3,9 9 5 N 1010,6 -
08.12.2018 04:00:00 6,4 4,2 8 4 NE 1010,9 -
08.12.2018 03:00:00 6,5 3,6 9 5 N 1010,6 -
08.12.2018 02:00:00 6,5 3,4 8 4 N 1010,8 -
08.12.2018 01:00:00 6,1 3,6 15 8 N 1011,7 0,0
08.12.2018 00:00:00 5,9 3,7 4 2 NNE 1012,9 -
07.12.2018 23:00:00 5,7 3,5 2 1 OSO 1014,4 -
07.12.2018 22:00:00 5,7 3,5 0 0 N 1014,8 -

tt = Temperatura
td = dewpoint
ff = velocità del vento
dd = direzione del vento
ppp = reduced air pressure
rr = precipitazioni

Stazioni seguenti

WeatherPro
AMSI
MeteoEarth